Time,TemperatureF,DewpointF,PressureIn,WindDirection,WindDirectionDegrees,WindSpeedMPH,WindSpeedGustMPH,Humidity,HourlyPrecipIn,Conditions,Clouds,dailyrainin,SoftwareType,DateUTC
2013-07-16 00:07:00,71.8,71.0,30.16,ESE,110,2.0,2.0,98,0.00,,,0.00,weatherlink.com 1.10,2013-07-16 05:07:00,
2013-07-16 00:22:00,71.9,71.0,30.16,East,84,0.0,1.0,98,0.00,,,0.00,weatherlink.com 1.10,2013-07-16 05:22:00,
2013-07-16 00:37:00,72.0,72.0,30.16,East,84,1.0,2.0,99,0.00,,,0.00,weatherlink.com 1.10,2013-07-16 05:37:00,
2013-07-16 00:52:00,72.1,72.0,30.15,East,94,2.0,2.0,99,0.00,,,0.00,weatherlink.com 1.10,2013-07-16 05:52:00,
2013-07-16 01:07:00,72.3,72.0,30.15,ESE,106,0.0,1.0,99,0.00,,,0.00,weatherlink.com 1.10,2013-07-16 06:07:00,
2013-07-16 01:22:00,72.6,72.0,30.16,ESE,117,1.0,2.0,99,0.00,,,0.00,weatherlink.com 1.10,2013-07-16 06:22:00,
2013-07-16 01:37:00,72.9,73.0,30.16,East,92,2.0,3.0,99,0.00,,,0.00,weatherlink.com 1.10,2013-07-16 06:37:00,
2013-07-16 01:52:00,73.2,73.0,30.15,East,84,2.0,3.0,99,0.00,,,0.00,weatherlink.com 1.10,2013-07-16 06:52:00,
2013-07-16 02:07:00,73.3,73.0,30.15,East,94,0.0,4.0,99,0.00,,,0.00,weatherlink.com 1.10,2013-07-16 07:07:00,
2013-07-16 02:22:00,73.3,73.0,30.15,East,81,0.0,3.0,98,0.00,,,0.00,weatherlink.com 1.10,2013-07-16 07:22:00,
2013-07-16 02:37:00,73.3,73.0,30.15,ENE,66,1.0,2.0,98,0.00,,,0.00,weatherlink.com 1.10,2013-07-16 07:37:00,
2013-07-16 02:52:00,73.3,73.0,30.14,ESE,117,0.0,3.0,98,0.00,,,0.00,weatherlink.com 1.10,2013-07-16 07:52:00,
2013-07-16 03:07:00,73.4,73.0,30.15,ESE,114,0.0,5.0,99,0.00,,,0.00,weatherlink.com 1.10,2013-07-16 08:07:00,
2013-07-16 03:22:00,73.5,73.0,30.15,East,96,2.0,3.0,98,0.00,,,0.00,weatherlink.com 1.10,2013-07-16 08:22:00,
2013-07-16 03:37:00,73.5,73.0,30.14,ENE,68,1.0,4.0,98,0.00,,,0.00,weatherlink.com 1.10,2013-07-16 08:37:00,
2013-07-16 03:52:00,73.4,73.0,30.14,ENE,65,0.0,5.0,98,0.00,,,0.00,weatherlink.com 1.10,2013-07-16 08:52:00,
2013-07-16 04:07:00,73.4,73.0,30.14,East,98,0.0,3.0,98,0.00,,,0.00,weatherlink.com 1.10,2013-07-16 09:07:00,
2013-07-16 04:22:00,73.3,73.0,30.14,East,81,1.0,5.0,98,0.00,,,0.00,weatherlink.com 1.10,2013-07-16 09:22:00,
2013-07-16 04:37:00,73.2,73.0,30.14,ENE,76,0.0,5.0,98,0.00,,,0.00,weatherlink.com 1.10,2013-07-16 09:37:00,
2013-07-16 04:52:00,73.2,73.0,30.14,ESE,113,2.0,3.0,98,0.00,,,0.00,weatherlink.com 1.10,2013-07-16 09:52:00,
2013-07-16 05:07:00,73.1,73.0,30.14,SE,131,0.0,4.0,98,0.00,,,0.00,weatherlink.com 1.10,2013-07-16 10:07:00,
2013-07-16 05:22:00,72.9,72.0,30.14,ENE,75,2.0,5.0,98,0.00,,,0.00,weatherlink.com 1.10,2013-07-16 10:22:00,
2013-07-16 05:37:00,72.8,72.0,30.14,East,81,1.0,3.0,98,0.00,,,0.00,weatherlink.com 1.10,2013-07-16 10:37:00,
2013-07-16 05:52:00,72.6,72.0,30.15,ESE,110,2.0,3.0,98,0.00,,,0.00,weatherlink.com 1.10,2013-07-16 10:52:00,
2013-07-16 06:07:00,72.6,72.0,30.15,East,86,0.0,4.0,99,0.00,,,0.00,weatherlink.com 1.10,2013-07-16 11:07:00,
2013-07-16 06:22:00,72.8,73.0,30.16,East,89,2.0,5.0,99,0.00,,,0.00,weatherlink.com 1.10,2013-07-16 11:22:00,
2013-07-16 06:38:00,73.0,72.0,30.16,ENE,77,1.0,5.0,98,0.00,,,0.00,weatherlink.com 1.10,2013-07-16 11:38:00,
2013-07-16 06:53:00,73.4,73.0,30.16,East,87,3.0,7.0,98,0.00,,,0.00,weatherlink.com 1.10,2013-07-16 11:53:00,
2013-07-16 07:08:00,73.9,73.0,30.17,ESE,113,1.0,8.0,97,0.00,,,0.00,weatherlink.com 1.10,2013-07-16 12:08:00,
2013-07-16 07:23:00,74.2,73.0,30.18,ESE,113,1.0,5.0,97,0.00,,,0.00,weatherlink.com 1.10,2013-07-16 12:23:00,
2013-07-16 07:38:00,74.8,73.0,30.18,East,87,3.0,7.0,95,0.00,,,0.00,weatherlink.com 1.10,2013-07-16 12:38:00,
2013-07-16 07:53:00,75.9,74.0,30.18,ENE,77,2.0,8.0,94,0.00,,,0.00,weatherlink.com 1.10,2013-07-16 12:53:00,
2013-07-16 08:08:00,77.2,75.0,30.19,ENE,70,4.0,6.0,91,0.00,,,0.00,weatherlink.com 1.10,2013-07-16 13:08:00,
2013-07-16 08:23:00,77.8,74.0,30.19,ENE,62,10.0,10.0,89,0.00,,,0.00,weatherlink.com 1.10,2013-07-16 13:23:00,
2013-07-16 08:38:00,77.2,74.0,30.20,ESE,121,10.0,12.0,88,0.00,,,0.00,weatherlink.com 1.10,2013-07-16 13:38:00,
2013-07-16 08:53:00,77.1,74.0,30.20,ENE,78,2.0,8.0,89,0.00,,,0.00,weatherlink.com 1.10,2013-07-16 13:53:00,
2013-07-16 09:08:00,78.6,75.0,30.20,ENE,64,3.0,11.0,87,0.00,,,0.00,weatherlink.com 1.10,2013-07-16 14:08:00,
2013-07-16 09:23:00,79.8,74.0,30.20,ENE,73,3.0,8.0,83,0.00,,,0.00,weatherlink.com 1.10,2013-07-16 14:23:00,
2013-07-16 09:38:00,79.6,74.0,30.20,East,85,9.0,10.0,84,0.00,,,0.00,weatherlink.com 1.10,2013-07-16 14:38:00,
2013-07-16 09:53:00,80.5,75.0,30.20,NE,51,2.0,11.0,82,0.00,,,0.00,weatherlink.com 1.10,2013-07-16 14:53:00,
2013-07-16 10:08:00,80.8,74.0,30.21,SE,124,6.0,13.0,79,0.00,,,0.00,weatherlink.com 1.10,2013-07-16 15:08:00,
2013-07-16 10:23:00,82.2,75.0,30.21,SE,146,1.0,10.0,78,0.00,,,0.00,weatherlink.com 1.10,2013-07-16 15:23:00,
2013-07-16 10:38:00,81.4,74.0,30.21,ENE,63,3.0,12.0,79,0.00,,,0.00,weatherlink.com 1.10,2013-07-16 15:38:00,
2013-07-16 10:53:00,82.2,74.0,30.21,East,89,4.0,10.0,76,0.00,,,0.00,weatherlink.com 1.10,2013-07-16 15:53:00,
2013-07-16 11:08:00,82.7,74.0,30.21,ENE,77,4.0,11.0,74,0.00,,,0.00,weatherlink.com 1.10,2013-07-16 16:08:00,
2013-07-16 11:23:00,83.9,74.0,30.21,ESE,109,5.0,13.0,72,0.00,,,0.00,weatherlink.com 1.10,2013-07-16 16:23:00,
2013-07-16 11:38:00,83.2,73.0,30.21,SE,136,3.0,12.0,72,0.00,,,0.00,weatherlink.com 1.10,2013-07-16 16:38:00,
2013-07-16 11:53:00,84.1,74.0,30.21,East,89,9.0,14.0,71,0.00,,,0.00,weatherlink.com 1.10,2013-07-16 16:53:00,
2013-07-16 12:08:00,84.9,74.0,30.20,ESE,110,5.0,13.0,69,0.00,,,0.00,weatherlink.com 1.10,2013-07-16 17:08:00,
2013-07-16 12:23:00,85.4,73.0,30.20,East,82,6.0,14.0,67,0.00,,,0.00,weatherlink.com 1.10,2013-07-16 17:23:00,
2013-07-16 12:38:00,85.8,73.0,30.20,SE,125,13.0,16.0,66,0.00,,,0.00,weatherlink.com 1.10,2013-07-16 17:38:00,
2013-07-16 12:53:00,86.5,73.0,30.20,East,98,6.0,12.0,65,0.00,,,0.00,weatherlink.com 1.10,2013-07-16 17:53:00,
2013-07-16 13:08:00,86.4,73.0,30.20,ESE,107,4.0,12.0,65,0.00,,,0.00,weatherlink.com 1.10,2013-07-16 18:08:00,
2013-07-16 13:23:00,85.2,74.0,30.19,ENE,77,3.0,10.0,68,0.00,,,0.00,weatherlink.com 1.10,2013-07-16 18:23:00,
2013-07-16 13:38:00,86.7,74.0,30.19,ENE,68,5.0,11.0,67,0.00,,,0.00,weatherlink.com 1.10,2013-07-16 18:38:00,
2013-07-16 13:54:00,87.4,74.0,30.19,ENE,70,5.0,8.0,65,0.00,,,0.00,weatherlink.com 1.10,2013-07-16 18:54:00,
2013-07-16 14:09:00,86.5,75.0,30.18,East,84,5.0,8.0,69,0.00,,,0.00,weatherlink.com 1.10,2013-07-16 19:09:00,
2013-07-16 14:24:00,86.9,74.0,30.18,SE,130,4.0,8.0,66,0.00,,,0.00,weatherlink.com 1.10,2013-07-16 19:24:00,
2013-07-16 14:39:00,87.0,75.0,30.17,ESE,110,3.0,8.0,68,0.00,,,0.00,weatherlink.com 1.10,2013-07-16 19:39:00,
2013-07-16 14:54:00,88.0,74.0,30.17,East,86,4.0,7.0,64,0.00,,,0.00,weatherlink.com 1.10,2013-07-16 19:54:00,
2013-07-16 15:09:00,89.1,73.0,30.16,East,94,2.0,8.0,60,0.00,,,0.00,weatherlink.com 1.10,2013-07-16 20:09:00,
2013-07-16 15:24:00,89.1,75.0,30.16,ESE,103,2.0,7.0,63,0.00,,,0.00,weatherlink.com 1.10,2013-07-16 20:24:00,
2013-07-16 15:39:00,89.1,74.0,30.16,ENE,68,2.0,7.0,62,0.00,,,0.00,weatherlink.com 1.10,2013-07-16 20:39:00,
2013-07-16 15:54:00,89.1,73.0,30.15,ESE,111,3.0,6.0,60,0.00,,,0.00,weatherlink.com 1.10,2013-07-16 20:54:00,
2013-07-16 16:09:00,89.0,73.0,30.15,East,80,3.0,7.0,60,0.00,,,0.00,weatherlink.com 1.10,2013-07-16 21:09:00,
2013-07-16 16:24:00,88.7,73.0,30.15,ENE,72,2.0,10.0,60,0.00,,,0.00,weatherlink.com 1.10,2013-07-16 21:24:00,
2013-07-16 16:39:00,89.1,75.0,30.14,ESE,113,3.0,7.0,63,0.00,,,0.00,weatherlink.com 1.10,2013-07-16 21:39:00,
2013-07-16 16:54:00,89.0,72.0,30.14,ESE,120,3.0,5.0,58,0.00,,,0.00,weatherlink.com 1.10,2013-07-16 21:54:00,
2013-07-16 17:09:00,88.6,74.0,30.14,East,93,3.0,4.0,62,0.00,,,0.00,weatherlink.com 1.10,2013-07-16 22:09:00,
2013-07-16 17:24:00,89.7,75.0,30.14,South,174,1.0,4.0,62,0.00,,,0.00,weatherlink.com 1.10,2013-07-16 22:24:00,
2013-07-16 17:39:00,90.2,75.0,30.15,ESE,115,1.0,4.0,61,0.00,,,0.00,weatherlink.com 1.10,2013-07-16 22:39:00,
2013-07-16 17:54:00,90.3,76.0,30.15,WSW,245,4.0,4.0,63,0.00,,,0.00,weatherlink.com 1.10,2013-07-16 22:54:00,
2013-07-16 18:09:00,87.2,74.0,30.15,East,91,2.0,7.0,64,0.00,,,0.00,weatherlink.com 1.10,2013-07-16 23:09:00,
2013-07-16 18:24:00,86.6,73.0,30.15,SE,134,1.0,4.0,65,0.00,,,0.00,weatherlink.com 1.10,2013-07-16 23:24:00,
2013-07-16 18:39:00,86.5,74.0,30.16,ESE,122,2.0,3.0,67,0.00,,,0.00,weatherlink.com 1.10,2013-07-16 23:39:00,
2013-07-16 18:54:00,85.8,75.0,30.16,East,95,0.0,2.0,69,0.00,,,0.00,weatherlink.com 1.10,2013-07-16 23:54:00,
2013-07-16 19:09:00,85.2,75.0,30.17,East,87,0.0,2.0,72,0.00,,,0.00,weatherlink.com 1.10,2013-07-17 00:09:00,
2013-07-16 19:24:00,79.4,72.0,30.19,East,79,3.0,17.0,79,0.04,,,0.04,weatherlink.com 1.10,2013-07-17 00:24:00,
2013-07-16 19:39:00,75.1,72.0,30.20,East,84,0.0,4.0,89,0.10,,,0.10,weatherlink.com 1.10,2013-07-17 00:39:00,
2013-07-16 19:54:00,74.4,72.0,30.19,ESE,114,0.0,1.0,92,0.13,,,0.13,weatherlink.com 1.10,2013-07-17 00:54:00,
2013-07-16 20:09:00,73.9,72.0,30.19,ESE,114,0.0,0.0,93,0.13,,,0.13,weatherlink.com 1.10,2013-07-17 01:09:00,
2013-07-16 20:24:00,73.6,72.0,30.18,ESE,114,0.0,0.0,95,0.08,,,0.13,weatherlink.com 1.10,2013-07-17 01:24:00,
2013-07-16 20:39:00,73.4,72.0,30.20,ESE,114,0.0,0.0,96,0.03,,,0.13,weatherlink.com 1.10,2013-07-17 01:39:00,
2013-07-16 20:54:00,73.2,72.0,30.20,ESE,114,0.0,0.0,96,0.00,,,0.13,weatherlink.com 1.10,2013-07-17 01:54:00,
2013-07-16 21:09:00,73.1,72.0,30.21,ESE,115,0.0,0.0,96,0.00,,,0.13,weatherlink.com 1.10,2013-07-17 02:09:00,
2013-07-16 21:24:00,72.9,72.0,30.21,ESE,114,0.0,0.0,97,0.00,,,0.13,weatherlink.com 1.10,2013-07-17 02:24:00,
2013-07-16 21:39:00,72.8,72.0,30.20,ESE,114,0.0,0.0,97,0.00,,,0.13,weatherlink.com 1.10,2013-07-17 02:39:00,
2013-07-16 21:54:00,72.6,72.0,30.20,ESE,114,0.0,0.0,97,0.00,,,0.13,weatherlink.com 1.10,2013-07-17 02:54:00,
2013-07-16 22:09:00,72.4,72.0,30.20,ESE,114,0.0,0.0,97,0.00,,,0.13,weatherlink.com 1.10,2013-07-17 03:09:00,
2013-07-16 22:24:00,72.2,71.0,30.20,ESE,114,0.0,0.0,97,0.00,,,0.13,weatherlink.com 1.10,2013-07-17 03:24:00,
2013-07-16 22:39:00,72.1,72.0,30.20,ESE,114,0.0,0.0,98,0.00,,,0.13,weatherlink.com 1.10,2013-07-17 03:39:00,
2013-07-16 22:54:00,72.1,72.0,30.20,ESE,114,0.0,0.0,98,0.00,,,0.13,weatherlink.com 1.10,2013-07-17 03:54:00,
2013-07-16 23:09:00,72.1,72.0,30.21,ESE,114,0.0,0.0,98,0.00,,,0.13,weatherlink.com 1.10,2013-07-17 04:09:00,
2013-07-16 23:24:00,72.0,71.0,30.21,ESE,114,0.0,0.0,98,0.00,,,0.13,weatherlink.com 1.10,2013-07-17 04:24:00,
2013-07-16 23:39:00,72.1,72.0,30.20,ESE,114,0.0,0.0,98,0.00,,,0.13,weatherlink.com 1.10,2013-07-17 04:39:00,
2013-07-16 23:54:00,72.1,72.0,30.20,ESE,114,0.0,0.0,98,0.00,,,0.13,weatherlink.com 1.10,2013-07-17 04:54:00,